Пелес

Россия / Пермский край     60°36′56″N   51°54′13″E
темп.,
°C
ветер,
м/с
пор.,
м/с
влажн.,
%
обл.,
%
осадки,
мм/ч
давл.,
гПа
погр.,
м
6 мая, чт
чт623:00+4з3791100 0.7 999558
02:00+2з51096100 0.4 1001673
05:00+1зсз51089100 0.6 1004886
08:00+1з5987100 0.1 10061145
11:00+3з6969100 0.3 10081290
14:00+5з5960100 0.1 10111598
17:00+9з584342 0.1 10111677
20:00+8зюз365662 0.0 1011277
7 мая, пт
пт723:00+4ю2277100 0.0 101237
02:00+6ююв31085100 0.0 1011257
05:00+7ююз31195100 0.1 1010344
08:00+10ююз4128889 0.0 1010517
11:00+14юз5106318 0.0 10101138
14:00+16юз6953100 0.2 10101757
17:00+16ююз51057100 0.6 10101621
20:00+12юз51078100 1.1 10111021
8 мая, сб
сб823:00+8зюз3890100 1.6 1013621
02:00+6ююз38963 0.1 1016226
05:00+5юз39960 0.1 1018265
08:00+7зюз24770 0.0 1019236
11:00+12юз24525 0.0 1020947
14:00+15ююз23375 0.0 10191918
17:00+16ююв34345 0.0 10182069
20:00+14юв26465 0.0 1018179
9 мая, вс
вс923:00+9вюв3116720 0.0 1017202
02:00+8юв3127975 0.0 1017281
05:00+10юв51481100 0.0 1016375
08:00+12ююв5146966 0.0 1015579
11:00+18ююв7134820 0.0 10142178
14:00+21ю71136100 0.0 10142757
17:00+21ю51139100 0.0 10132769
20:00+17ююв51149100 0.0 1014594
10 мая, пн
пн1023:00+15ю51357100 0.0 1015805
02:00+12ю31281100 0.3 1015737
05:00+12ююз3992100 0.7 1017637
08:00+8зсз3693100 3.1 1019371
11:00+6зсз3691100 4.8 1022520
14:00+6зсз3586100 1.0 1024622
17:00+8сз3472100 1.0 10251021
20:00+10юз01654 0.0 1025206